Inversion Research: Below Escarpment

*Note: All times are displayed in the local standard time of the station location.
**Rain - Equipment is designed to accurately record liquid precipitation; under conditions when precipitation is not in liquid form, the data displayed may not properly reflect rainfall values.

Date Max Temp
(°C)
Min Temp
(°C)
Avg Temp
(°C)
Rain (mm) Avg RH (%)
Sat, Feb 17, 2018 -0.6 -5.5 -2.4 - 74.3
Fri, Feb 16, 2018 4.8 -4.9 0.6 - 84.0
Thu, Feb 15, 2018 10.2 3.6 7.0 - 99.0
Wed, Feb 14, 2018 5.3 -5.2 3.2 - 81.0
Tue, Feb 13, 2018 0.0 -15.3 -7.2 - 81.1
Mon, Feb 12, 2018 -1.5 -9.0 -3.7 - 75.4
Sun, Feb 11, 2018 1.0 -3.6 -1.4 - 97.8
DateTime Avg Temp (°C) Rain (mm) RH (%)
Sun, Feb 18, 2018 04:00 -1.7 - 93.0
Sun, Feb 18, 2018 03:00 -1.2 - 91.0
Sun, Feb 18, 2018 02:00 -1.2 - 94.3
Sun, Feb 18, 2018 01:00 -1.4 - 92.5
Sun, Feb 18, 2018 00:00 -1.1 - 87.5
Sat, Feb 17, 2018 23:00 -1.0 - 79.5
Sat, Feb 17, 2018 22:00 -1.1 - 75.0
Sat, Feb 17, 2018 21:00 -1.2 - 73.0
Sat, Feb 17, 2018 20:00 -1.2 - 71.0
Sat, Feb 17, 2018 19:00 -1.1 - 65.8
Sat, Feb 17, 2018 18:00 -0.9 - 61.3
Sat, Feb 17, 2018 17:00 -0.8 - 63.5
Sat, Feb 17, 2018 16:00 -0.8 - 62.3
Sat, Feb 17, 2018 15:00 -0.7 - 64.0
Sat, Feb 17, 2018 14:00 -0.7 - 65.5
Sat, Feb 17, 2018 13:00 -0.8 - 66.5
Sat, Feb 17, 2018 12:00 -1.0 - 68.0
Sat, Feb 17, 2018 11:00 -1.6 - 69.3
Sat, Feb 17, 2018 10:00 -2.2 - 73.3
Sat, Feb 17, 2018 09:00 -3.4 - 79.0
Sat, Feb 17, 2018 08:00 -4.6 - 82.0
Sat, Feb 17, 2018 07:00 -4.9 - 81.8
Sat, Feb 17, 2018 06:00 -4.6 - 80.3
Sat, Feb 17, 2018 05:00 -4.7 - 83.5
Sat, Feb 17, 2018 04:00 -4.7 - 83.8
Sat, Feb 17, 2018 03:00 -5.1 - 83.0
Sat, Feb 17, 2018 02:00 -5.4 - 83.5
Sat, Feb 17, 2018 01:00 -5.1 - 81.3
Sat, Feb 17, 2018 00:00 -4.8 - 78.8
Fri, Feb 16, 2018 23:00 -4.3 - 76.5
Fri, Feb 16, 2018 22:00 -3.4 - 69.3
Fri, Feb 16, 2018 21:00 -3.1 - 68.0
Fri, Feb 16, 2018 20:00 -2.8 - 64.8
Fri, Feb 16, 2018 19:00 -2.4 - 64.3
Fri, Feb 16, 2018 18:00 -1.9 - 65.0
Fri, Feb 16, 2018 17:00 -0.4 - 66.0
Fri, Feb 16, 2018 16:00 0.7 - 68.3
Fri, Feb 16, 2018 15:00 1.9 - 66.8
Fri, Feb 16, 2018 14:00 2.0 - 72.0
Fri, Feb 16, 2018 13:00 2.1 - 78.0
Fri, Feb 16, 2018 12:00 2.0 - 91.3
Fri, Feb 16, 2018 11:00 1.3 - 97.8
Fri, Feb 16, 2018 10:00 1.8 - 95.3
Fri, Feb 16, 2018 09:00 1.6 - 96.5
Fri, Feb 16, 2018 08:00 1.8 - 98.5
Fri, Feb 16, 2018 07:00 2.6 - 99.8
Fri, Feb 16, 2018 06:00 2.6 - 100.0
Fri, Feb 16, 2018 05:00 2.7 - 100.0


asterix Register now to access more data! asterix